Location: Rometta
(44.2000°N, 10.0500°E)
Time: 16:51:16
(UTC+00:00)

H-2A R/B - Pass Details

Date: 20 January 2021
Orbit: 577 x 655 km, 98.5° (Epoch: 28 February)

Event Time Altitude Azimuth Distance (km) Brightness Sun altitude
Rises 16:52:26 0° 13° (NNE) 2,974 5.2 -7.2°
Reaches altitude 10° 16:54:41 10° 13° (NNE) 2,051 4.4 -7.6°
Maximum altitude 16:59:09 85° 286° (WNW) 644 2.2 -8.3°
Drops below altitude 10° 17:03:30 10° 197° (SSW) 1,991 5.2 -9.1°
Sets 17:05:39 0° 197° (SSW) 2,880 6.0 -9.4°
